2022 WD3
ephemeris date magn radius delta ra dec elong phase
Today5 Sep 202627.71.238 AU0.896 AU05h29m+02°33'80.9°53.5°
2022 WD3 - 2026-09-05
astro.vanbuitenen.nl


 
-1 year
-1 month
-1 day
Now
+1 day
+1 month
+1 year

The interactive orbit chart above shows the body's path through the solar system and its position at the given date. Green and blue lines are shown perpendicular to the ecliptic plane: Green if the path is above the ecliptic plane, blue if it is below. (Left-click and drag to rotate the view; Right-click and drag to move the view; Use scroll wheel to zoom in our out.)

The orbital elements of 2022 WD3 are:

            e (Eccentricity)                : 0.3606002
            a (Semimajor axis)              : 1.5607082
            i (Inclination)                 : 24.13504
            Ω (Longitude of ascending node) : 61.86484
            ω (Argument of perihelion)      : 35.79441
            M (Mean anomaly)                : 277.43070
            Epoch                           : 2026 Jun 09

            L (Longitude of perihelion)     : 95.21140
            B (Latitude of perihelion)      : 13.83639
            P (Orbital period in years)     : 1.95            
        

The light curve chart below shows the estimated development of the minor planet's magnitude.


The all-sky chart below shows the path of the minor planet over the same period as the light curve. The current position is marked yellow.





The following chart shows the path of the minor planet in the next few days. The field of view is optimized for (~10x50) binoculars and finderscopes.




Ephemerides:
Date       Time       RA (2000)    DEC (2000)    delta   radius  elong  phase   PA    magn
2026-09-05 00:00 UT   05 29 32.0   +02 33 43     0.896    1.238   80.9   53.5   263   27.7 
2026-09-05 01:19 UT   05 29 43.7   +02 34 42     0.896    1.238   80.9   53.5   263   27.7 
2026-09-06 00:00 UT   05 33 06.8   +02 51 47     0.888    1.233   80.8   53.8   264   27.7 
2026-09-07 00:00 UT   05 36 43.6   +03 10 05     0.880    1.228   80.8   54.1   264   27.6 
2026-09-08 00:00 UT   05 40 22.4   +03 28 36     0.872    1.223   80.8   54.4   265   27.6 
2026-09-09 00:00 UT   05 44 03.3   +03 47 22     0.864    1.218   80.8   54.7   265   27.6 
2026-09-10 00:00 UT   05 47 46.3   +04 06 21     0.857    1.213   80.7   55.1   265   27.6 
2026-09-11 00:00 UT   05 51 31.5   +04 25 34     0.849    1.208   80.7   55.4   266   27.6 
2026-09-12 00:00 UT   05 55 18.9   +04 45 02     0.842    1.203   80.7   55.7   266   27.5 
2026-09-13 00:00 UT   05 59 08.7   +05 04 44     0.834    1.198   80.6   56.0   267   27.5 


    Terminology:
            
    delta:  distance between minor planet and earth in AU
    radius: distance between minor planet and sun in AU
    magn:   magnitude (brightness) estimate    
    ra:     right ascension in hours (24h = 360deg)
    dec:    declination in degrees
    elong:  elongation in degrees (angle sun-earth-minor planet)    
    phase:  phase angle in degrees (angle sun-minor planet-earth)        
    AU:     Astronomical Unit (mean distance between earth and sun: 149597870.7 km
    

Orbital elements provided by the MPC (Minor Planet Center).
Calculations by a modified version of AAPlus, a C# implementation of the AA+ project by PJ Naughter from the algorithms presented in the book "Astronomical Algorithms" by Jean Meeus.
NGC2000 dso catalog and star labels from VizieR as provided by the Strasbourg astronomical Data Center.
Tycho2 catalog from the ESO archive.